Time,TemperatureF,DewpointF,PressureIn,WindDirection,WindDirectionDegrees,WindSpeedMPH,WindSpeedGustMPH,Humidity,HourlyPrecipIn,Conditions,Clouds,dailyrainin,SoftwareType,DateUTC
2013-08-09 00:00:00,80.0,62.8,29.56,SSE,157,13.0,16.0,56,0.00,,,0.00,Weather View 32 v70,2013-08-09 04:00:00,
2013-08-09 00:05:00,80.0,62.3,29.56,WSW,247,10.0,17.0,55,0.00,,,0.00,Weather View 32 v70,2013-08-09 04:05:00,
2013-08-09 00:10:00,80.0,61.8,29.56,WSW,247,11.0,17.0,54,0.00,,,0.00,Weather View 32 v70,2013-08-09 04:10:00,
2013-08-09 00:15:00,80.0,61.8,29.56,WSW,247,9.0,17.0,54,0.00,,,0.00,Weather View 32 v70,2013-08-09 04:15:00,
2013-08-09 00:20:00,80.0,61.8,29.56,WSW,247,12.0,17.0,54,0.00,,,0.00,Weather View 32 v70,2013-08-09 04:20:00,
2013-08-09 00:25:00,80.0,61.8,29.56,WSW,247,10.0,17.0,54,0.00,,,0.00,Weather View 32 v70,2013-08-09 04:25:00,
2013-08-09 00:30:00,79.0,59.8,29.57,WSW,247,10.0,17.0,52,0.00,,,0.00,Weather View 32 v70,2013-08-09 04:30:00,
2013-08-09 00:35:00,79.0,59.8,29.57,WSW,247,9.0,17.0,52,0.00,,,0.00,Weather View 32 v70,2013-08-09 04:35:00,
2013-08-09 00:40:00,79.0,59.3,29.57,WSW,247,11.0,17.0,51,0.00,,,0.00,Weather View 32 v70,2013-08-09 04:40:00,
2013-08-09 00:50:00,79.0,59.3,29.59,WSW,247,8.0,17.0,51,0.00,,,0.00,Weather View 32 v70,2013-08-09 04:50:00,
2013-08-09 00:55:00,79.0,59.3,29.59,SSE,157,13.0,17.0,51,0.00,,,0.00,Weather View 32 v70,2013-08-09 04:55:00,
2013-08-09 01:00:00,79.0,58.7,29.58,SSE,157,10.0,17.0,50,0.00,,,0.00,Weather View 32 v70,2013-08-09 05:00:00,
2013-08-09 01:05:00,79.0,59.3,29.58,SSE,157,9.0,15.0,51,0.00,,,0.00,Weather View 32 v70,2013-08-09 05:05:00,
2013-08-09 01:10:00,79.0,58.7,29.56,SSE,157,14.0,15.0,50,0.00,,,0.00,Weather View 32 v70,2013-08-09 05:10:00,
2013-08-09 01:15:00,79.0,58.7,29.56,SSE,157,12.0,15.0,50,0.00,,,0.00,Weather View 32 v70,2013-08-09 05:15:00,
2013-08-09 01:20:00,79.0,58.7,29.58,SSE,157,7.0,15.0,50,0.00,,,0.00,Weather View 32 v70,2013-08-09 05:20:00,
2013-08-09 01:25:00,79.0,59.3,29.58,WSW,247,12.0,15.0,51,0.00,,,0.00,Weather View 32 v70,2013-08-09 05:25:00,
2013-08-09 01:30:00,79.0,58.7,29.57,SSE,157,8.0,15.0,50,0.00,,,0.00,Weather View 32 v70,2013-08-09 05:30:00,
2013-08-09 01:40:00,79.0,58.7,29.55,WSW,247,11.0,15.0,50,0.00,,,0.00,Weather View 32 v70,2013-08-09 05:40:00,
2013-08-09 01:45:00,79.0,59.3,29.55,WSW,247,7.0,15.0,51,0.00,,,0.00,Weather View 32 v70,2013-08-09 05:45:00,
2013-08-09 01:50:00,79.0,58.7,29.56,WSW,247,10.0,15.0,50,0.00,,,0.00,Weather View 32 v70,2013-08-09 05:50:00,
2013-08-09 01:55:00,79.0,59.3,29.56,WSW,247,8.0,15.0,51,0.00,,,0.00,Weather View 32 v70,2013-08-09 05:55:00,
2013-08-09 02:00:00,79.0,59.3,29.57,WSW,247,10.0,15.0,51,0.00,,,0.00,Weather View 32 v70,2013-08-09 06:00:00,
2013-08-09 02:05:00,79.0,59.3,29.57,WSW,247,11.0,15.0,51,0.00,,,0.00,Weather View 32 v70,2013-08-09 06:05:00,
2013-08-09 02:10:00,79.0,58.7,29.55,WSW,247,10.0,15.0,50,0.00,,,0.00,Weather View 32 v70,2013-08-09 06:10:00,
2013-08-09 02:15:00,79.0,58.7,29.55,WSW,247,9.0,15.0,50,0.00,,,0.00,Weather View 32 v70,2013-08-09 06:15:00,
2013-08-09 02:20:00,79.0,58.7,29.55,WSW,247,8.0,15.0,50,0.00,,,0.00,Weather View 32 v70,2013-08-09 06:20:00,
2013-08-09 02:25:00,79.0,58.7,29.55,WSW,247,8.0,14.0,50,0.00,,,0.00,Weather View 32 v70,2013-08-09 06:25:00,
2013-08-09 02:35:00,78.0,57.8,29.57,WSW,247,8.0,14.0,50,0.00,,,0.00,Weather View 32 v70,2013-08-09 06:35:00,
2013-08-09 02:40:00,78.0,57.8,29.55,WSW,247,9.0,13.0,50,0.00,,,0.00,Weather View 32 v70,2013-08-09 06:40:00,
2013-08-09 02:45:00,78.0,57.8,29.55,WSW,247,9.0,13.0,50,0.00,,,0.00,Weather View 32 v70,2013-08-09 06:45:00,
2013-08-09 02:50:00,78.0,57.8,29.55,WSW,247,8.0,13.0,50,0.00,,,0.00,Weather View 32 v70,2013-08-09 06:50:00,
2013-08-09 02:55:00,78.0,57.8,29.55,WSW,247,5.0,13.0,50,0.00,,,0.00,Weather View 32 v70,2013-08-09 06:55:00,
2013-08-09 03:00:00,78.0,57.8,29.55,WSW,247,8.0,13.0,50,0.00,,,0.00,Weather View 32 v70,2013-08-09 07:00:00,
2013-08-09 03:05:00,78.0,58.3,29.55,WSW,247,9.0,13.0,51,0.00,,,0.00,Weather View 32 v70,2013-08-09 07:05:00,
2013-08-09 03:10:00,78.0,58.3,29.55,WSW,247,7.0,12.0,51,0.00,,,0.00,Weather View 32 v70,2013-08-09 07:10:00,
2013-08-09 03:15:00,78.0,58.3,29.55,WSW,247,9.0,12.0,51,0.00,,,0.00,Weather View 32 v70,2013-08-09 07:15:00,
2013-08-09 03:20:00,78.0,58.3,29.55,WSW,247,9.0,12.0,51,0.00,,,0.00,Weather View 32 v70,2013-08-09 07:20:00,
2013-08-09 03:25:00,78.0,58.3,29.55,WSW,247,10.0,12.0,51,0.00,,,0.00,Weather View 32 v70,2013-08-09 07:25:00,
2013-08-09 03:30:00,78.0,58.3,29.55,WSW,247,8.0,12.0,51,0.00,,,0.00,Weather View 32 v70,2013-08-09 07:30:00,
2013-08-09 03:35:00,78.0,58.3,29.55,WSW,247,6.0,12.0,51,0.00,,,0.00,Weather View 32 v70,2013-08-09 07:35:00,
2013-08-09 03:44:00,78.0,58.3,29.57,WSW,247,8.0,12.0,51,0.00,,,0.00,Weather View 32 v70,2013-08-09 07:44:00,
2013-08-09 03:50:00,78.0,57.8,29.55,WSW,247,8.0,12.0,50,0.00,,,0.00,Weather View 32 v70,2013-08-09 07:50:00,
2013-08-09 03:55:00,78.0,57.8,29.55,WSW,247,8.0,12.0,50,0.00,,,0.00,Weather View 32 v70,2013-08-09 07:55:00,
2013-08-09 04:05:00,78.0,57.8,29.54,WSW,247,7.0,12.0,50,0.00,,,0.00,Weather View 32 v70,2013-08-09 08:05:00,
2013-08-09 04:10:00,78.0,57.8,29.54,WSW,247,10.0,12.0,50,0.00,,,0.00,Weather View 32 v70,2013-08-09 08:10:00,
2013-08-09 04:15:00,78.0,57.8,29.54,WSW,247,9.0,12.0,50,0.00,,,0.00,Weather View 32 v70,2013-08-09 08:15:00,
2013-08-09 04:20:00,78.0,57.8,29.57,WSW,247,7.0,12.0,50,0.00,,,0.00,Weather View 32 v70,2013-08-09 08:20:00,
2013-08-09 04:25:00,78.0,57.8,29.57,WSW,247,7.0,11.0,50,0.00,,,0.00,Weather View 32 v70,2013-08-09 08:25:00,
2013-08-09 04:30:00,78.0,57.8,29.55,WSW,247,6.0,11.0,50,0.00,,,0.00,Weather View 32 v70,2013-08-09 08:30:00,
2013-08-09 04:35:00,78.0,57.8,29.55,WSW,247,6.0,11.0,50,0.00,,,0.00,Weather View 32 v70,2013-08-09 08:35:00,
2013-08-09 04:44:00,78.0,57.8,29.57,WSW,247,7.0,11.0,50,0.00,,,0.00,Weather View 32 v70,2013-08-09 08:44:00,
2013-08-09 04:50:00,78.0,57.8,29.55,WSW,247,7.0,11.0,50,0.00,,,0.00,Weather View 32 v70,2013-08-09 08:50:00,
2013-08-09 04:55:00,78.0,57.8,29.55,WSW,247,7.0,11.0,50,0.00,,,0.00,Weather View 32 v70,2013-08-09 08:55:00,
2013-08-09 05:00:00,78.0,57.8,29.56,WSW,247,9.0,11.0,50,0.00,,,0.00,Weather View 32 v70,2013-08-09 09:00:00,
2013-08-09 05:05:00,78.0,57.8,29.56,WSW,247,7.0,11.0,50,0.00,,,0.00,Weather View 32 v70,2013-08-09 09:05:00,
2013-08-09 05:10:00,78.0,57.2,29.55,WSW,247,6.0,11.0,49,0.00,,,0.00,Weather View 32 v70,2013-08-09 09:10:00,
2013-08-09 05:15:00,78.0,57.8,29.55,WSW,247,7.0,10.0,50,0.00,,,0.00,Weather View 32 v70,2013-08-09 09:15:00,
2013-08-09 05:25:00,77.0,56.3,29.57,WSW,247,6.0,9.0,49,0.00,,,0.00,Weather View 32 v70,2013-08-09 09:25:00,
2013-08-09 05:30:00,77.0,55.7,29.56,WSW,247,6.0,9.0,48,0.00,,,0.00,Weather View 32 v70,2013-08-09 09:30:00,
2013-08-09 05:35:00,77.0,55.7,29.56,WSW,247,7.0,9.0,48,0.00,,,0.00,Weather View 32 v70,2013-08-09 09:35:00,
2013-08-09 05:40:00,77.0,55.7,29.56,WSW,247,7.0,9.0,48,0.00,,,0.00,Weather View 32 v70,2013-08-09 09:40:00,
2013-08-09 05:45:00,77.0,55.7,29.56,WSW,247,5.0,9.0,48,0.00,,,0.00,Weather View 32 v70,2013-08-09 09:45:00,
2013-08-09 05:55:00,77.0,55.7,29.58,WSW,247,6.0,9.0,48,0.00,,,0.00,Weather View 32 v70,2013-08-09 09:55:00,
2013-08-09 06:00:00,77.0,54.6,29.57,WSW,247,6.0,9.0,46,0.00,,,0.00,Weather View 32 v70,2013-08-09 10:00:00,
2013-08-09 06:10:00,77.0,54.6,29.58,WSW,247,7.0,9.0,46,0.00,,,0.00,Weather View 32 v70,2013-08-09 10:10:00,
2013-08-09 06:15:00,77.0,54.6,29.58,WSW,247,6.0,9.0,46,0.00,,,0.00,Weather View 32 v70,2013-08-09 10:15:00,
2013-08-09 06:20:00,77.0,54.6,29.59,WSW,247,5.0,9.0,46,0.00,,,0.00,Weather View 32 v70,2013-08-09 10:20:00,
2013-08-09 06:25:00,77.0,54.6,29.59,WSW,247,6.0,9.0,46,0.00,,,0.00,Weather View 32 v70,2013-08-09 10:25:00,
2013-08-09 06:30:00,77.0,54.0,29.58,WSW,247,6.0,9.0,45,0.00,,,0.00,Weather View 32 v70,2013-08-09 10:30:00,
2013-08-09 06:35:00,77.0,54.6,29.58,WSW,247,6.0,9.0,46,0.00,,,0.00,Weather View 32 v70,2013-08-09 10:35:00,
2013-08-09 06:40:00,77.0,54.0,29.60,WSW,247,6.0,9.0,45,0.00,,,0.00,Weather View 32 v70,2013-08-09 10:40:00,
2013-08-09 06:46:00,77.0,54.0,29.60,WSW,247,6.0,8.0,45,0.00,,,0.00,Weather View 32 v70,2013-08-09 10:46:00,
2013-08-09 06:55:00,77.0,54.0,29.59,WSW,247,6.0,8.0,45,0.00,,,0.00,Weather View 32 v70,2013-08-09 10:55:00,
2013-08-09 07:00:00,77.0,54.0,29.61,WSW,247,6.0,8.0,45,0.00,,,0.00,Weather View 32 v70,2013-08-09 11:00:00,
2013-08-09 07:05:00,77.0,54.0,29.61,WSW,247,7.0,8.0,45,0.00,,,0.00,Weather View 32 v70,2013-08-09 11:05:00,
2013-08-09 07:10:00,77.0,54.0,29.59,WSW,247,6.0,8.0,45,0.00,,,0.00,Weather View 32 v70,2013-08-09 11:10:00,
2013-08-09 07:15:00,77.0,54.0,29.59,WSW,247,6.0,8.0,45,0.00,,,0.00,Weather View 32 v70,2013-08-09 11:15:00,
2013-08-09 07:20:00,78.0,54.9,29.61,WSW,247,6.0,8.0,45,0.00,,,0.00,Weather View 32 v70,2013-08-09 11:20:00,
2013-08-09 07:30:00,78.0,55.5,29.59,WSW,247,7.0,9.0,46,0.00,,,0.00,Weather View 32 v70,2013-08-09 11:30:00,
2013-08-09 07:35:00,78.0,55.5,29.59,WSW,247,6.0,9.0,46,0.00,,,0.00,Weather View 32 v70,2013-08-09 11:35:00,
2013-08-09 07:40:00,78.0,56.1,29.61,WSW,247,7.0,10.0,47,0.00,,,0.00,Weather View 32 v70,2013-08-09 11:40:00,
2013-08-09 07:45:00,78.0,56.7,29.61,WSW,247,7.0,10.0,48,0.00,,,0.00,Weather View 32 v70,2013-08-09 11:45:00,
2013-08-09 07:50:00,79.0,57.6,29.60,WSW,247,4.0,10.0,48,0.00,,,0.00,Weather View 32 v70,2013-08-09 11:50:00,
2013-08-09 08:00:00,79.0,58.1,29.59,WSW,247,6.0,10.0,49,0.00,,,0.00,Weather View 32 v70,2013-08-09 12:00:00,
2013-08-09 08:10:00,79.0,58.7,29.61,WSW,247,9.0,10.0,50,0.00,,,0.00,Weather View 32 v70,2013-08-09 12:10:00,
2013-08-09 08:15:00,80.0,60.7,29.61,WSW,247,7.0,10.0,52,0.00,,,0.00,Weather View 32 v70,2013-08-09 12:15:00,
2013-08-09 08:20:00,80.0,60.7,29.59,WSW,247,8.0,12.0,52,0.00,,,0.00,Weather View 32 v70,2013-08-09 12:20:00,
2013-08-09 08:25:00,80.0,60.7,29.59,WSW,247,9.0,12.0,52,0.00,,,0.00,Weather View 32 v70,2013-08-09 12:25:00,
2013-08-09 08:30:00,80.0,60.7,29.61,WSW,247,7.0,12.0,52,0.00,,,0.00,Weather View 32 v70,2013-08-09 12:30:00,
2013-08-09 08:35:00,80.0,61.3,29.61,WSW,247,7.0,12.0,53,0.00,,,0.00,Weather View 32 v70,2013-08-09 12:35:00,
2013-08-09 08:40:00,81.0,61.7,29.59,WSW,247,7.0,12.0,52,0.00,,,0.00,Weather View 32 v70,2013-08-09 12:40:00,
2013-08-09 08:45:00,80.0,61.8,29.59,WSW,247,10.0,12.0,54,0.00,,,0.00,Weather View 32 v70,2013-08-09 12:45:00,
2013-08-09 08:55:00,80.0,61.8,29.59,WSW,247,7.0,13.0,54,0.00,,,0.00,Weather View 32 v70,2013-08-09 12:55:00,
2013-08-09 09:00:00,81.0,62.7,29.61,WSW,247,6.0,13.0,54,0.00,,,0.00,Weather View 32 v70,2013-08-09 13:00:00,
2013-08-09 09:05:00,80.0,61.8,29.61,WSW,247,8.0,13.0,54,0.00,,,0.00,Weather View 32 v70,2013-08-09 13:05:00,
2013-08-09 09:10:00,80.0,60.7,29.59,WSW,247,8.0,13.0,52,0.00,,,0.00,Weather View 32 v70,2013-08-09 13:10:00,
2013-08-09 09:15:00,80.0,61.8,29.59,WSW,247,9.0,13.0,54,0.00,,,0.00,Weather View 32 v70,2013-08-09 13:15:00,
2013-08-09 09:20:00,80.0,62.3,29.60,WSW,247,10.0,13.0,55,0.00,,,0.00,Weather View 32 v70,2013-08-09 13:20:00,
2013-08-09 09:25:00,80.0,62.3,29.60,WSW,247,10.0,13.0,55,0.00,,,0.00,Weather View 32 v70,2013-08-09 13:25:00,
2013-08-09 09:30:00,80.0,61.8,29.60,WSW,247,11.0,13.0,54,0.00,,,0.00,Weather View 32 v70,2013-08-09 13:30:00,
2013-08-09 09:40:00,80.0,61.8,29.59,SSE,157,16.0,17.0,54,0.00,,,0.00,Weather View 32 v70,2013-08-09 13:40:00,
2013-08-09 09:45:00,79.0,59.8,29.59,SSE,157,18.0,20.0,52,0.00,,,0.00,Weather View 32 v70,2013-08-09 13:45:00,
2013-08-09 09:50:00,78.0,58.3,29.63,WSW,247,16.0,20.0,51,0.00,,,0.00,Weather View 32 v70,2013-08-09 13:50:00,
2013-08-09 09:55:00,77.0,58.0,29.63,WSW,247,12.0,20.0,52,0.00,,,0.00,Weather View 32 v70,2013-08-09 13:55:00,
2013-08-09 10:00:00,78.0,58.9,29.63,WSW,247,6.0,20.0,52,0.00,,,0.00,Weather View 32 v70,2013-08-09 14:00:00,
2013-08-09 10:05:00,78.0,59.4,29.63,WSW,247,10.0,20.0,53,0.00,,,0.00,Weather View 32 v70,2013-08-09 14:05:00,
2013-08-09 10:10:00,78.0,60.5,29.61,WSW,247,8.0,20.0,55,0.00,,,0.00,Weather View 32 v70,2013-08-09 14:10:00,
2013-08-09 10:20:00,79.0,60.9,29.63,WSW,247,9.0,20.0,54,0.00,,,0.00,Weather View 32 v70,2013-08-09 14:20:00,
2013-08-09 10:30:00,79.0,60.9,29.63,WSW,247,8.0,20.0,54,0.00,,,0.00,Weather View 32 v70,2013-08-09 14:30:00,
2013-08-09 10:35:00,80.0,62.8,29.63,WSW,247,11.0,20.0,56,0.00,,,0.00,Weather View 32 v70,2013-08-09 14:35:00,
2013-08-09 10:40:00,80.0,62.8,29.63,SSE,157,9.0,20.0,56,0.00,,,0.00,Weather View 32 v70,2013-08-09 14:40:00,
2013-08-09 10:45:00,80.0,62.8,29.63,WSW,247,10.0,20.0,56,0.00,,,0.00,Weather View 32 v70,2013-08-09 14:45:00,
2013-08-09 10:50:00,81.0,64.3,29.60,WSW,247,9.0,17.0,57,0.00,,,0.00,Weather View 32 v70,2013-08-09 14:50:00,
2013-08-09 10:55:00,82.0,65.7,29.60,WSW,247,10.0,17.0,58,0.00,,,0.00,Weather View 32 v70,2013-08-09 14:55:00,
2013-08-09 11:00:00,82.0,66.2,29.59,WSW,247,12.0,18.0,59,0.00,,,0.00,Weather View 32 v70,2013-08-09 15:00:00,
2013-08-09 11:10:00,82.0,65.7,29.61,WSW,247,16.0,18.0,58,0.00,,,0.00,Weather View 32 v70,2013-08-09 15:10:00,
2013-08-09 11:20:00,82.0,66.2,29.60,SSE,157,12.0,19.0,59,0.00,,,0.00,Weather View 32 v70,2013-08-09 15:20:00,
2013-08-09 11:25:00,82.0,67.6,29.60,WSW,247,15.0,19.0,62,0.00,,,0.00,Weather View 32 v70,2013-08-09 15:25:00,
2013-08-09 11:30:00,83.0,68.6,29.59,WSW,247,16.0,19.0,62,0.00,,,0.00,Weather View 32 v70,2013-08-09 15:30:00,
2013-08-09 11:35:00,83.0,69.1,29.59,WSW,247,14.0,19.0,63,0.00,,,0.00,Weather View 32 v70,2013-08-09 15:35:00,
2013-08-09 11:40:00,84.0,70.5,29.61,WSW,247,13.0,19.0,64,0.00,,,0.00,Weather View 32 v70,2013-08-09 15:40:00,
2013-08-09 11:45:00,84.0,70.5,29.61,WSW,247,14.0,19.0,64,0.00,,,0.00,Weather View 32 v70,2013-08-09 15:45:00,
2013-08-09 11:50:00,84.0,70.5,29.61,WSW,247,13.0,19.0,64,0.00,,,0.00,Weather View 32 v70,2013-08-09 15:50:00,
2013-08-09 12:00:00,84.0,70.9,29.60,WSW,247,15.0,20.0,65,0.00,,,0.00,Weather View 32 v70,2013-08-09 16:00:00,
2013-08-09 12:05:00,84.0,70.9,29.60,WSW,247,11.0,20.0,65,0.00,,,0.00,Weather View 32 v70,2013-08-09 16:05:00,
2013-08-09 12:10:00,84.0,70.5,29.59,WSW,247,16.0,20.0,64,0.00,,,0.00,Weather View 32 v70,2013-08-09 16:10:00,
2013-08-09 12:15:00,84.0,70.9,29.59,SSE,157,10.0,20.0,65,0.00,,,0.00,Weather View 32 v70,2013-08-09 16:15:00,
2013-08-09 12:20:00,84.0,70.5,29.58,WSW,247,8.0,20.0,64,0.00,,,0.00,Weather View 32 v70,2013-08-09 16:20:00,
2013-08-09 12:25:00,85.0,71.4,29.58,SSE,157,12.0,20.0,64,0.00,,,0.00,Weather View 32 v70,2013-08-09 16:25:00,
2013-08-09 12:30:00,83.0,69.1,29.61,SSE,157,5.0,20.0,63,0.00,,,0.00,Weather View 32 v70,2013-08-09 16:30:00,
2013-08-09 12:40:00,82.0,67.2,29.59,SSE,157,6.0,20.0,61,0.00,,,0.00,Weather View 32 v70,2013-08-09 16:40:00,
2013-08-09 12:45:00,83.0,68.6,29.59,SSE,157,6.0,20.0,62,0.00,,,0.00,Weather View 32 v70,2013-08-09 16:45:00,
2013-08-09 12:50:00,83.0,68.6,29.58,SSE,157,10.0,20.0,62,0.00,,,0.00,Weather View 32 v70,2013-08-09 16:50:00,
2013-08-09 12:55:00,83.0,68.6,29.58,SSE,157,7.0,20.0,62,0.00,,,0.00,Weather View 32 v70,2013-08-09 16:55:00,
2013-08-09 13:00:00,83.0,69.1,29.60,SSE,157,16.0,20.0,63,0.00,,,0.00,Weather View 32 v70,2013-08-09 17:00:00,
2013-08-09 13:05:00,83.0,69.1,29.60,SSE,157,13.0,20.0,63,0.00,,,0.00,Weather View 32 v70,2013-08-09 17:05:00,
2013-08-09 13:10:00,83.0,68.6,29.57,SSE,157,9.0,21.0,62,0.00,,,0.00,Weather View 32 v70,2013-08-09 17:10:00,
2013-08-09 13:15:00,83.0,68.6,29.57,SSE,157,9.0,22.0,62,0.00,,,0.00,Weather View 32 v70,2013-08-09 17:15:00,
2013-08-09 13:20:00,83.0,69.1,29.59,SSE,157,15.0,22.0,63,0.00,,,0.00,Weather View 32 v70,2013-08-09 17:20:00,
2013-08-09 13:30:00,84.0,70.9,29.57,SSE,157,16.0,22.0,65,0.00,,,0.00,Weather View 32 v70,2013-08-09 17:30:00,
2013-08-09 13:35:00,82.0,68.1,29.57,SSE,157,16.0,26.0,63,0.00,,,0.00,Weather View 32 v70,2013-08-09 17:35:00,
2013-08-09 13:40:00,82.0,68.6,29.57,WSW,247,15.0,26.0,64,0.00,,,0.00,Weather View 32 v70,2013-08-09 17:40:00,
2013-08-09 13:45:00,81.0,67.2,29.57,WSW,247,12.0,26.0,63,0.00,,,0.00,Weather View 32 v70,2013-08-09 17:45:00,
2013-08-09 13:50:00,82.0,67.6,29.59,WSW,247,11.0,26.0,62,0.00,,,0.00,Weather View 32 v70,2013-08-09 17:50:00,
2013-08-09 13:55:00,83.0,69.5,29.59,WSW,247,10.0,26.0,64,0.00,,,0.00,Weather View 32 v70,2013-08-09 17:55:00,
2013-08-09 14:00:00,84.0,71.4,29.57,WSW,247,17.0,26.0,66,0.00,,,0.00,Weather View 32 v70,2013-08-09 18:00:00,
2013-08-09 14:05:00,84.0,71.4,29.57,WSW,247,12.0,26.0,66,0.00,,,0.00,Weather View 32 v70,2013-08-09 18:05:00,
2013-08-09 14:15:00,85.0,72.3,29.57,SSE,157,12.0,26.0,66,0.00,,,0.00,Weather View 32 v70,2013-08-09 18:15:00,
2013-08-09 14:20:00,85.0,72.8,29.56,SSE,157,13.0,26.0,67,0.00,,,0.00,Weather View 32 v70,2013-08-09 18:20:00,
2013-08-09 14:25:00,85.0,72.8,29.56,SSE,157,15.0,26.0,67,0.00,,,0.00,Weather View 32 v70,2013-08-09 18:25:00,
2013-08-09 14:30:00,84.0,71.8,29.58,WSW,247,13.0,26.0,67,0.00,,,0.00,Weather View 32 v70,2013-08-09 18:30:00,
2013-08-09 14:35:00,84.0,71.8,29.58,SSE,157,20.0,25.0,67,0.00,,,0.00,Weather View 32 v70,2013-08-09 18:35:00,
2013-08-09 14:40:00,84.0,71.8,29.56,SSE,157,17.0,23.0,67,0.00,,,0.00,Weather View 32 v70,2013-08-09 18:40:00,
2013-08-09 14:45:00,84.0,71.8,29.56,WSW,247,13.0,23.0,67,0.00,,,0.00,Weather View 32 v70,2013-08-09 18:45:00,
2013-08-09 14:50:00,84.0,71.8,29.55,SSE,157,10.0,26.0,67,0.00,,,0.00,Weather View 32 v70,2013-08-09 18:50:00,
2013-08-09 15:00:00,85.0,72.8,29.57,SSE,157,18.0,26.0,67,0.00,,,0.00,Weather View 32 v70,2013-08-09 19:00:00,
2013-08-09 15:05:00,84.0,71.8,29.57,SSE,157,10.0,26.0,67,0.00,,,0.00,Weather View 32 v70,2013-08-09 19:05:00,
2013-08-09 15:10:00,84.0,71.8,29.56,SSE,157,8.0,26.0,67,0.00,,,0.00,Weather View 32 v70,2013-08-09 19:10:00,
2013-08-09 15:15:00,84.0,71.8,29.56,SSE,157,22.0,26.0,67,0.00,,,0.00,Weather View 32 v70,2013-08-09 19:15:00,
2013-08-09 15:20:00,84.0,71.8,29.55,SSE,157,14.0,26.0,67,0.00,,,0.00,Weather View 32 v70,2013-08-09 19:20:00,
2013-08-09 15:25:00,84.0,71.8,29.55,SSE,157,13.0,26.0,67,0.00,,,0.00,Weather View 32 v70,2013-08-09 19:25:00,
2013-08-09 15:30:00,84.0,71.8,29.57,SSE,157,12.0,26.0,67,0.00,,,0.00,Weather View 32 v70,2013-08-09 19:30:00,
2013-08-09 15:35:00,83.0,70.4,29.57,SSE,157,16.0,26.0,66,0.00,,,0.00,Weather View 32 v70,2013-08-09 19:35:00,
2013-08-09 15:40:00,83.0,70.4,29.55,SSE,157,10.0,26.0,66,0.00,,,0.00,Weather View 32 v70,2013-08-09 19:40:00,
2013-08-09 15:50:00,83.0,70.0,29.55,SSE,157,22.0,25.0,65,0.00,,,0.00,Weather View 32 v70,2013-08-09 19:50:00,
2013-08-09 15:55:00,83.0,70.0,29.55,SSE,157,16.0,25.0,65,0.00,,,0.00,Weather View 32 v70,2013-08-09 19:55:00,
2013-08-09 16:00:00,83.0,70.4,29.54,SSE,157,15.0,25.0,66,0.00,,,0.00,Weather View 32 v70,2013-08-09 20:00:00,
2013-08-09 16:05:00,84.0,71.8,29.54,SSE,157,19.0,25.0,67,0.00,,,0.00,Weather View 32 v70,2013-08-09 20:05:00,
2013-08-09 16:10:00,84.0,72.3,29.56,SSE,157,20.0,25.0,68,0.00,,,0.00,Weather View 32 v70,2013-08-09 20:10:00,
2013-08-09 16:15:00,84.0,72.3,29.56,SSE,157,17.0,25.0,68,0.00,,,0.00,Weather View 32 v70,2013-08-09 20:15:00,
2013-08-09 16:20:00,84.0,72.3,29.52,SSE,157,15.0,25.0,68,0.00,,,0.00,Weather View 32 v70,2013-08-09 20:20:00,
2013-08-09 16:25:00,84.0,72.3,29.52,SSE,157,12.0,25.0,68,0.00,,,0.00,Weather View 32 v70,2013-08-09 20:25:00,
2013-08-09 16:30:00,84.0,72.7,29.53,SSE,157,15.0,25.0,69,0.00,,,0.00,Weather View 32 v70,2013-08-09 20:30:00,
2013-08-09 16:40:00,84.0,72.7,29.55,SSE,157,13.0,25.0,69,0.00,,,0.00,Weather View 32 v70,2013-08-09 20:40:00,
2013-08-09 16:45:00,84.0,72.7,29.55,SSE,157,17.0,25.0,69,0.00,,,0.00,Weather View 32 v70,2013-08-09 20:45:00,
2013-08-09 16:50:00,84.0,72.7,29.53,SSE,157,16.0,24.0,69,0.00,,,0.00,Weather View 32 v70,2013-08-09 20:50:00,
2013-08-09 16:55:00,84.0,72.7,29.53,SSE,157,13.0,24.0,69,0.00,,,0.00,Weather View 32 v70,2013-08-09 20:55:00,
2013-08-09 17:00:00,84.0,72.7,29.52,SSE,157,16.0,24.0,69,0.00,,,0.00,Weather View 32 v70,2013-08-09 21:00:00,
2013-08-09 17:05:00,84.0,72.7,29.52,WSW,247,10.0,24.0,69,0.00,,,0.00,Weather View 32 v70,2013-08-09 21:05:00,
2013-08-09 17:10:00,83.0,70.9,29.54,SSE,157,16.0,24.0,67,0.00,,,0.00,Weather View 32 v70,2013-08-09 21:10:00,
2013-08-09 17:15:00,84.0,72.7,29.54,SSE,157,16.0,24.0,69,0.00,,,0.00,Weather View 32 v70,2013-08-09 21:15:00,
2013-08-09 17:25:00,84.0,72.3,29.54,SSE,157,22.0,24.0,68,0.00,,,0.00,Weather View 32 v70,2013-08-09 21:25:00,
2013-08-09 17:30:00,83.0,70.9,29.55,WSW,247,9.0,24.0,67,0.00,,,0.00,Weather View 32 v70,2013-08-09 21:30:00,
2013-08-09 17:35:00,83.0,70.9,29.55,SSE,157,10.0,23.0,67,0.00,,,0.00,Weather View 32 v70,2013-08-09 21:35:00,
2013-08-09 17:40:00,83.0,70.9,29.53,SSE,157,15.0,23.0,67,0.00,,,0.00,Weather View 32 v70,2013-08-09 21:40:00,
2013-08-09 17:45:00,83.0,70.4,29.53,SSE,157,7.0,23.0,66,0.00,,,0.00,Weather View 32 v70,2013-08-09 21:45:00,
2013-08-09 17:50:00,83.0,70.4,29.53,SSE,157,13.0,23.0,66,0.00,,,0.00,Weather View 32 v70,2013-08-09 21:50:00,
2013-08-09 17:55:00,83.0,70.4,29.53,WSW,247,7.0,23.0,66,0.00,,,0.00,Weather View 32 v70,2013-08-09 21:55:00,
2013-08-09 18:00:00,83.0,70.4,29.53,SSE,157,10.0,23.0,66,0.00,,,0.00,Weather View 32 v70,2013-08-09 22:00:00,
2013-08-09 18:05:00,82.0,69.5,29.53,SSE,157,13.0,23.0,66,0.00,,,0.00,Weather View 32 v70,2013-08-09 22:05:00,
2013-08-09 18:15:00,82.0,69.5,29.53,SSE,157,10.0,24.0,66,0.00,,,0.00,Weather View 32 v70,2013-08-09 22:15:00,
2013-08-09 18:20:00,83.0,70.4,29.54,SSE,157,6.0,25.0,66,0.00,,,0.00,Weather View 32 v70,2013-08-09 22:20:00,
2013-08-09 18:25:00,82.0,69.5,29.54,SSE,157,15.0,25.0,66,0.00,,,0.00,Weather View 32 v70,2013-08-09 22:25:00,
2013-08-09 18:30:00,83.0,70.9,29.53,SSE,157,13.0,25.0,67,0.00,,,0.00,Weather View 32 v70,2013-08-09 22:30:00,
2013-08-09 18:35:00,83.0,70.4,29.53,SSE,157,15.0,25.0,66,0.00,,,0.00,Weather View 32 v70,2013-08-09 22:35:00,
2013-08-09 18:40:00,82.0,69.5,29.53,SSE,157,12.0,25.0,66,0.00,,,0.00,Weather View 32 v70,2013-08-09 22:40:00,
2013-08-09 18:45:00,82.0,69.5,29.53,SSE,157,16.0,25.0,66,0.00,,,0.00,Weather View 32 v70,2013-08-09 22:45:00,
2013-08-09 18:50:00,82.0,69.5,29.57,SSE,157,17.0,25.0,66,0.00,,,0.00,Weather View 32 v70,2013-08-09 22:50:00,
2013-08-09 19:00:00,82.0,69.5,29.54,SSE,157,12.0,25.0,66,0.00,,,0.00,Weather View 32 v70,2013-08-09 23:00:00,
2013-08-09 19:05:00,82.0,69.5,29.54,SSE,157,13.0,25.0,66,0.00,,,0.00,Weather View 32 v70,2013-08-09 23:05:00,
2013-08-09 19:10:00,82.0,69.5,29.55,SSE,157,15.0,25.0,66,0.00,,,0.00,Weather View 32 v70,2013-08-09 23:10:00,
2013-08-09 19:15:00,82.0,69.0,29.55,SSE,157,9.0,25.0,65,0.00,,,0.00,Weather View 32 v70,2013-08-09 23:15:00,
2013-08-09 19:20:00,82.0,69.0,29.56,WSW,247,9.0,24.0,65,0.00,,,0.00,Weather View 32 v70,2013-08-09 23:20:00,
2013-08-09 19:25:00,81.0,68.1,29.56,WSW,247,12.0,24.0,65,0.00,,,0.00,Weather View 32 v70,2013-08-09 23:25:00,
2013-08-09 19:30:00,81.0,68.5,29.55,WSW,247,17.0,24.0,66,0.00,,,0.00,Weather View 32 v70,2013-08-09 23:30:00,
2013-08-09 19:35:00,82.0,69.5,29.55,SSE,157,7.0,24.0,66,0.00,,,0.00,Weather View 32 v70,2013-08-09 23:35:00,
2013-08-09 19:45:00,81.0,68.5,29.54,SSE,157,16.0,23.0,66,0.00,,,0.00,Weather View 32 v70,2013-08-09 23:45:00,
2013-08-09 19:50:00,81.0,68.1,29.57,SSE,157,13.0,23.0,65,0.00,,,0.00,Weather View 32 v70,2013-08-09 23:50:00,
2013-08-09 19:55:00,81.0,68.1,29.57,WSW,247,9.0,23.0,65,0.00,,,0.00,Weather View 32 v70,2013-08-09 23:55:00,
2013-08-09 20:00:00,81.0,68.1,29.55,WSW,247,15.0,23.0,65,0.00,,,0.00,Weather View 32 v70,2013-08-10 00:00:00,
2013-08-09 20:05:00,81.0,67.6,29.55,WSW,247,13.0,23.0,64,0.00,,,0.00,Weather View 32 v70,2013-08-10 00:05:00,
2013-08-09 20:10:00,81.0,67.6,29.57,SSE,157,12.0,22.0,64,0.00,,,0.00,Weather View 32 v70,2013-08-10 00:10:00,
2013-08-09 20:15:00,81.0,67.6,29.57,SSE,157,13.0,22.0,64,0.00,,,0.00,Weather View 32 v70,2013-08-10 00:15:00,
2013-08-09 20:20:00,81.0,67.6,29.56,SSE,157,13.0,22.0,64,0.00,,,0.00,Weather View 32 v70,2013-08-10 00:20:00,
2013-08-09 20:25:00,81.0,67.6,29.56,WSW,247,12.0,22.0,64,0.00,,,0.00,Weather View 32 v70,2013-08-10 00:25:00,
2013-08-09 20:35:00,81.0,67.6,29.55,WSW,247,17.0,22.0,64,0.00,,,0.00,Weather View 32 v70,2013-08-10 00:35:00,
2013-08-09 20:40:00,81.0,67.6,29.56,WSW,247,12.0,20.0,64,0.00,,,0.00,Weather View 32 v70,2013-08-10 00:40:00,
2013-08-09 20:45:00,80.0,66.7,29.56,WSW,247,15.0,20.0,64,0.00,,,0.00,Weather View 32 v70,2013-08-10 00:45:00,
2013-08-09 20:50:00,80.0,66.2,29.56,SSE,157,11.0,19.0,63,0.00,,,0.00,Weather View 32 v70,2013-08-10 00:50:00,
2013-08-09 20:55:00,80.0,65.8,29.56,SSE,157,17.0,19.0,62,0.00,,,0.00,Weather View 32 v70,2013-08-10 00:55:00,
2013-08-09 21:00:00,80.0,65.3,29.57,WSW,247,14.0,19.0,61,0.00,,,0.00,Weather View 32 v70,2013-08-10 01:00:00,
2013-08-09 21:05:00,80.0,65.3,29.57,WSW,247,13.0,19.0,61,0.00,,,0.00,Weather View 32 v70,2013-08-10 01:05:00,
2013-08-09 21:10:00,80.0,64.8,29.57,WSW,247,10.0,19.0,60,0.00,,,0.00,Weather View 32 v70,2013-08-10 01:10:00,
2013-08-09 21:15:00,80.0,64.8,29.57,SSE,157,17.0,19.0,60,0.00,,,0.00,Weather View 32 v70,2013-08-10 01:15:00,
2013-08-09 21:20:00,80.0,64.3,29.59,WSW,247,12.0,19.0,59,0.00,,,0.00,Weather View 32 v70,2013-08-10 01:20:00,
2013-08-09 21:30:00,80.0,64.3,29.59,WSW,247,11.0,19.0,59,0.00,,,0.00,Weather View 32 v70,2013-08-10 01:30:00,
2013-08-09 21:35:00,80.0,64.3,29.59,WSW,247,14.0,19.0,59,0.00,,,0.00,Weather View 32 v70,2013-08-10 01:35:00,
2013-08-09 21:40:00,80.0,64.3,29.57,WSW,247,10.0,19.0,59,0.00,,,0.00,Weather View 32 v70,2013-08-10 01:40:00,
2013-08-09 21:50:00,80.0,64.3,29.58,WSW,247,10.0,19.0,59,0.00,,,0.00,Weather View 32 v70,2013-08-10 01:50:00,
2013-08-09 21:55:00,80.0,64.3,29.58,WSW,247,12.0,19.0,59,0.00,,,0.00,Weather View 32 v70,2013-08-10 01:55:00,
2013-08-09 22:00:00,80.0,64.3,29.59,WSW,247,12.0,17.0,59,0.00,,,0.00,Weather View 32 v70,2013-08-10 02:00:00,
2013-08-09 22:05:00,80.0,63.8,29.59,WSW,247,12.0,17.0,58,0.00,,,0.00,Weather View 32 v70,2013-08-10 02:05:00,
2013-08-09 22:10:00,80.0,64.3,29.58,WSW,247,15.0,17.0,59,0.00,,,0.00,Weather View 32 v70,2013-08-10 02:10:00,
2013-08-09 22:20:00,80.0,64.3,29.58,WSW,247,12.0,19.0,59,0.00,,,0.00,Weather View 32 v70,2013-08-10 02:20:00,
2013-08-09 22:25:00,80.0,64.3,29.58,WSW,247,14.0,20.0,59,0.00,,,0.00,Weather View 32 v70,2013-08-10 02:25:00,
2013-08-09 22:30:00,80.0,63.8,29.57,WSW,247,17.0,20.0,58,0.00,,,0.00,Weather View 32 v70,2013-08-10 02:30:00,
2013-08-09 22:35:00,80.0,63.8,29.57,WSW,247,15.0,20.0,58,0.00,,,0.00,Weather View 32 v70,2013-08-10 02:35:00,
2013-08-09 22:40:00,80.0,63.8,29.59,WSW,247,19.0,21.0,58,0.00,,,0.00,Weather View 32 v70,2013-08-10 02:40:00,
2013-08-09 22:45:00,80.0,63.8,29.59,WSW,247,12.0,21.0,58,0.00,,,0.00,Weather View 32 v70,2013-08-10 02:45:00,
2013-08-09 22:50:00,80.0,63.8,29.58,WSW,247,19.0,21.0,58,0.00,,,0.00,Weather View 32 v70,2013-08-10 02:50:00,
2013-08-09 22:55:00,80.0,64.3,29.58,WSW,247,19.0,23.0,59,0.00,,,0.00,Weather View 32 v70,2013-08-10 02:55:00,
2013-08-09 23:00:00,80.0,63.8,29.58,WSW,247,14.0,23.0,58,0.00,,,0.00,Weather View 32 v70,2013-08-10 03:00:00,
2013-08-09 23:05:00,80.0,63.8,29.58,WSW,247,14.0,23.0,58,0.00,,,0.00,Weather View 32 v70,2013-08-10 03:05:00,
2013-08-09 23:10:00,80.0,63.3,29.60,WSW,247,12.0,23.0,57,0.00,,,0.00,Weather View 32 v70,2013-08-10 03:10:00,
2013-08-09 23:20:00,80.0,63.8,29.60,WSW,247,12.0,23.0,58,0.00,,,0.00,Weather View 32 v70,2013-08-10 03:20:00,
2013-08-09 23:25:00,80.0,63.8,29.60,WSW,247,14.0,23.0,58,0.00,,,0.00,Weather View 32 v70,2013-08-10 03:25:00,
2013-08-09 23:30:00,80.0,63.3,29.58,WSW,247,12.0,23.0,57,0.00,,,0.00,Weather View 32 v70,2013-08-10 03:30:00,
2013-08-09 23:35:00,80.0,63.3,29.58,WSW,247,11.0,23.0,57,0.00,,,0.00,Weather View 32 v70,2013-08-10 03:35:00,
2013-08-09 23:40:00,80.0,63.3,29.59,WSW,247,12.0,23.0,57,0.00,,,0.00,Weather View 32 v70,2013-08-10 03:40:00,
2013-08-09 23:45:00,79.0,62.4,29.59,WSW,247,12.0,23.0,57,0.00,,,0.00,Weather View 32 v70,2013-08-10 03:45:00,
2013-08-09 23:55:00,79.0,61.9,29.59,WSW,247,13.0,23.0,56,0.00,,,0.00,Weather View 32 v70,2013-08-10 03:55:00,